User: anonymous   Login
Location: Hale Hill Observatory
(39.3806°N, 86.8431°W)
Time: 19:40:40
(UTC-04:00)
Language:

Cosmos 990 Rocket - Orbit

View from above orbital plane
View from above orbital plane
View from above satellite
View from above satellite

Ground track
Ground track

The orbit data is extracted from the following two-line orbital elements,

1 10677U 78019B   16211.47459971  .00000049  00000-0  24131-4 0  9991
2 10677  74.0374 177.6261 0015907 327.1917  32.8249 14.39969939 16041
Epoch (UTC): 29 July 2016 11:23:25
Eccentricity: 0.0015907
inclination: 74.0374°
perigee height: 747 km
apogee height: 770 km
right ascension of ascending node: 177.6261°
argument of perigee: 327.1917°
revolutions per day: 14.39969939
mean anomaly at epoch: 32.8249°
orbit number at epoch: 1604

The dashed part of the orbit path shows where the satellite is in the earth's shadow,  

DLR